Showing default

AE2A, 64591

Orbit data source: Space-Track

AE2A, 64591 is a payload satellite owned by ArkEdge (JP) in SSO that was launched on Mon, 23 Jun 2025 UTC via an FALCON 9 launch vehicle from the Air Force Western Test Range (AFWTR). Payload-class satellites include a variety of spacecraft equipped with specific instruments for various scientific and technological missions. These include communications satellites like Starlink; space stations such as the ISS; scientific satellites like the Hubble; Earth observation satellites from companies like Planet Labs, Umbra, and HawkEye 360; GPS; miniature CubeSats for education and research; and military/defense satellites.

Loading next visibility...
Identifier
64591, 2025-135BR
Orbit
SSO
Country
Flag of JPJP / JPN
Related business
Manufacturer
ArkEdge
Mission
Operational Commercial Imaging
Bus & Motor
CUBESAT 6U, Unknown motor
Mass
~10 kg wet, ~10 kg dry
Launch date (UTC)
2025-06-23 (1 year ago)
Launch vehicle
FALCON 9
Launch site
Air Force Western Test Range (AFWTR)
Object type
Payload
Rocket body
Debris
Shape & HBR
Box + 2 Pan, 0.1 m
Radar Cross Section
0.080 m², Medium (>0.1 m² and < 1m²)

Expand to show TLE details & history
Last TLE update: 8 hours ago

TLE from 8 hours ago
0 AE2A
1 64591U 25135BR  26171.56422398  .00003197  00000-0  28177-3 0  9995
2 64591  97.7691 286.7658 0004435 330.8107  29.2866 14.97149634 54466
Epoch: 2026-06-20T13:32Z
TLE epoch observation values (Epoch: 2026-06-20T13:32:28.951Z)
Latitude
-0.00007°
Longitude
174.86814°
Altitude
576.067 km
Speed
7.574 km/s
True Right ascension
19h 07m 03s
True Declination
0° 00' 00"
Sunlit
Object was in full shadow at epoch
Visualization orbit readout
Latitude
Unknown
Longitude
Unknown
Altitude
Unknown
Speed
Unknown
Apparent Right ascension
Unknown
Apparent Declination
Unknown
Sunlit
N/A
Visualization observer readout
Local Sidereal Time
08:42:07
Azimuth
Unknown
Elevation
Unknown
Doppler factor
Unknown
Orbital elements
Apogee altitude
575.803 km
Perigee altitude
569.638 km
Semi-major axis
6,950.858 km
Eccentricity
0.00044
Inclination
97.7691°
RAAN
286.7658°
Arg. of periapsis
330.8107°
True anomaly
29.31147°
Mean anomaly
29.2866°
Eccentric anomaly
29.29904°
Mean motion
3.74529 °/min
Orbital period
96.12 mins
BSTAR
0.00028177
Loading maneuver chart data...
Computing Atmospheric mass density...
Loading historical data...
Loading historical data...
Loading historical data...
Loading historical data...
Loading historical data...
Loading historical data...
Loading historical data...

Documentation

Showing up to 5 results
|